Location: Namasale
(1.5000°N, 32.6167°E)
Time: 19:06:49
(UTC+00:00)

STARLINK-1096 - Pass Details

Date: 09 April 2020
Orbit: 548 x 551 km, 53.0° (Epoch: 28 May)

Event Time Altitude Azimuth Distance (km) Brightness Sun altitude
Rises 16:06:15 0° 341° (NNW) 2,703 7.5 -3.6°
Reaches altitude 10° 16:08:38 10° 351° (N) 1,812 6.5 -4.2°
Maximum altitude 16:12:22 33° 56° (NE) 931 4.4 -5.1°
Drops below altitude 10° 16:16:04 10° 120° (ESE) 1,803 5.7 -6.0°
Enters shadow 16:17:23 - 127° (SE) 2,285 6.2 -6.3°
